TimeCDT,TemperatureF,Dew PointF,Humidity,Sea Level PressureIn,VisibilityMPH,Wind Direction,Wind SpeedMPH,Gust SpeedMPH,PrecipitationIn,Events,Conditions,WindDirDegrees,DateUTC
12:04 AM,6.8,-0.4,72,30.11,10.0,West,8.1,-,N/A,,Clear,280,2013-03-21 05:04:00
12:24 AM,6.8,-0.4,72,30.11,10.0,WNW,8.1,-,N/A,,Clear,290,2013-03-21 05:24:00
1:04 AM,6.8,-0.4,72,30.11,10.0,WNW,6.9,-,N/A,,Clear,300,2013-03-21 06:04:00
1:24 AM,6.8,-0.4,72,30.11,10.0,WNW,4.6,-,N/A,,Clear,300,2013-03-21 06:24:00
1:45 AM,6.8,-0.4,72,30.10,10.0,Calm,Calm,-,N/A,,Clear,0,2013-03-21 06:45:00
2:04 AM,5.0,-2.2,72,30.10,10.0,West,4.6,-,N/A,,Clear,280,2013-03-21 07:04:00
2:24 AM,5.0,-2.2,72,30.09,10.0,Calm,Calm,-,N/A,,Clear,0,2013-03-21 07:24:00
2:45 AM,3.2,-2.2,78,30.09,10.0,West,4.6,-,N/A,,Clear,260,2013-03-21 07:45:00
3:04 AM,3.2,-2.2,78,30.09,10.0,Calm,Calm,-,N/A,,Clear,0,2013-03-21 08:04:00
3:24 AM,1.4,-2.2,85,30.09,10.0,Calm,Calm,-,N/A,,Clear,0,2013-03-21 08:24:00
3:44 AM,3.2,-2.2,78,30.09,10.0,Calm,Calm,-,N/A,,Clear,0,2013-03-21 08:44:00
4:04 AM,3.2,-2.2,78,30.09,10.0,Calm,Calm,-,N/A,,Clear,0,2013-03-21 09:04:00
4:23 AM,1.4,-2.2,85,30.09,10.0,Calm,Calm,-,N/A,,Clear,0,2013-03-21 09:23:00
4:44 AM,1.4,-4.0,78,30.08,10.0,Calm,Calm,-,N/A,,Clear,0,2013-03-21 09:44:00
5:04 AM,-0.4,-4.0,85,30.08,10.0,WSW,3.5,-,N/A,,Clear,240,2013-03-21 10:04:00
5:24 AM,-0.4,-5.8,78,30.08,10.0,Calm,Calm,-,N/A,,Clear,0,2013-03-21 10:24:00
5:44 AM,-2.2,-5.8,85,30.09,10.0,Calm,Calm,-,N/A,,Clear,0,2013-03-21 10:44:00
6:04 AM,-2.2,-5.8,85,30.08,10.0,Calm,Calm,-,N/A,,Clear,0,2013-03-21 11:04:00
6:24 AM,-2.2,-5.8,85,30.08,10.0,Calm,Calm,-,N/A,,Clear,0,2013-03-21 11:24:00
6:44 AM,-5.8,-7.6,92,30.09,10.0,Calm,Calm,-,N/A,,Clear,0,2013-03-21 11:44:00
7:04 AM,-4.0,-5.8,92,30.09,10.0,Calm,Calm,-,N/A,,Clear,0,2013-03-21 12:04:00
7:24 AM,-2.2,-5.8,85,30.09,10.0,Calm,Calm,-,N/A,,Clear,0,2013-03-21 12:24:00
7:44 AM,-0.4,-4.0,85,30.09,10.0,Calm,Calm,-,N/A,,Clear,0,2013-03-21 12:44:00
8:04 AM,-0.4,-4.0,85,30.10,10.0,Calm,Calm,-,N/A,,Clear,0,2013-03-21 13:04:00
8:24 AM,1.4,-4.0,78,30.10,10.0,Calm,Calm,-,N/A,,Clear,0,2013-03-21 13:24:00
8:44 AM,3.2,-2.2,78,30.10,10.0,Calm,Calm,-,N/A,,Clear,0,2013-03-21 13:44:00
9:04 AM,6.8,-0.4,72,30.10,10.0,Calm,Calm,-,N/A,,Clear,0,2013-03-21 14:04:00
9:25 AM,6.8,-0.4,72,30.09,10.0,Calm,Calm,-,N/A,,Clear,0,2013-03-21 14:25:00
9:44 AM,10.4,1.4,67,30.10,10.0,Calm,Calm,-,N/A,,Clear,0,2013-03-21 14:44:00
10:04 AM,10.4,1.4,67,30.09,10.0,Calm,Calm,-,N/A,,Clear,0,2013-03-21 15:04:00
10:24 AM,12.2,3.2,67,30.09,10.0,Calm,Calm,-,N/A,,Clear,0,2013-03-21 15:24:00
10:44 AM,14.0,3.2,62,30.09,10.0,Calm,Calm,-,N/A,,Clear,0,2013-03-21 15:44:00
11:05 AM,15.8,3.2,58,30.09,10.0,Calm,Calm,-,N/A,,Clear,0,2013-03-21 16:05:00
11:24 AM,17.6,3.2,53,30.08,10.0,Calm,Calm,-,N/A,,Clear,0,2013-03-21 16:24:00
11:44 AM,19.4,3.2,49,30.08,10.0,Calm,Calm,-,N/A,,Clear,0,2013-03-21 16:44:00
12:05 PM,19.4,6.8,58,30.08,10.0,Calm,Calm,-,N/A,,Clear,0,2013-03-21 17:05:00
12:24 PM,21.2,5.0,50,30.08,10.0,Calm,Calm,-,N/A,,Clear,0,2013-03-21 17:24:00
12:44 PM,21.2,5.0,50,30.07,10.0,Calm,Calm,-,N/A,,Clear,0,2013-03-21 17:44:00
1:05 PM,21.2,6.8,54,30.07,10.0,Calm,Calm,-,N/A,,Clear,0,2013-03-21 18:05:00
1:24 PM,21.2,6.8,54,30.07,10.0,Calm,Calm,-,N/A,,Clear,0,2013-03-21 18:24:00
1:44 PM,23.0,6.8,50,30.06,10.0,Calm,Calm,-,N/A,,Clear,0,2013-03-21 18:44:00
2:05 PM,24.8,8.6,50,30.05,10.0,SW,3.5,-,N/A,,Clear,220,2013-03-21 19:05:00
2:24 PM,23.0,8.6,54,30.05,10.0,Calm,Calm,-,N/A,,Clear,0,2013-03-21 19:24:00
2:44 PM,24.8,8.6,50,30.04,10.0,Calm,Calm,-,N/A,,Clear,0,2013-03-21 19:44:00
3:05 PM,24.8,6.8,46,30.04,10.0,SSW,3.5,-,N/A,,Clear,200,2013-03-21 20:05:00
3:24 PM,24.8,8.6,50,30.03,10.0,Calm,Calm,-,N/A,,Clear,0,2013-03-21 20:24:00
3:44 PM,24.8,8.6,50,30.03,10.0,ENE,5.8,-,N/A,,Clear,60,2013-03-21 20:44:00
4:03 PM,24.8,8.6,50,30.03,10.0,ESE,3.5,-,N/A,,Clear,110,2013-03-21 21:03:00
4:24 PM,24.8,8.6,50,30.03,10.0,Calm,Calm,-,N/A,,Clear,0,2013-03-21 21:24:00
4:44 PM,24.8,8.6,50,30.02,10.0,Calm,Calm,-,N/A,,Clear,0,2013-03-21 21:44:00
5:04 PM,24.8,8.6,50,30.02,10.0,Calm,Calm,-,N/A,,Clear,0,2013-03-21 22:04:00
5:24 PM,24.8,10.4,54,30.02,10.0,ESE,3.5,-,N/A,,Clear,110,2013-03-21 22:24:00
5:45 PM,24.8,10.4,54,30.02,10.0,Calm,Calm,-,N/A,,Clear,0,2013-03-21 22:45:00
6:04 PM,24.8,8.6,50,30.02,10.0,Calm,Calm,-,N/A,,Clear,0,2013-03-21 23:04:00
6:25 PM,21.2,10.4,63,30.02,10.0,ESE,5.8,-,N/A,,Clear,120,2013-03-21 23:25:00
6:44 PM,21.2,10.4,63,30.02,10.0,ESE,4.6,-,N/A,,Clear,120,2013-03-21 23:44:00
7:04 PM,21.2,8.6,58,30.03,10.0,Calm,Calm,-,N/A,,Clear,0,2013-03-22 00:04:00
7:24 PM,19.4,8.6,63,30.03,10.0,Calm,Calm,-,N/A,,Clear,0,2013-03-22 00:24:00
7:44 PM,17.6,8.6,68,30.04,10.0,West,4.6,-,N/A,,Clear,280,2013-03-22 00:44:00
8:04 PM,19.4,8.6,63,30.04,10.0,West,6.9,-,N/A,,Clear,270,2013-03-22 01:04:00
8:24 PM,17.6,8.6,68,30.04,10.0,West,6.9,-,N/A,,Clear,270,2013-03-22 01:24:00
8:44 PM,17.6,8.6,68,30.04,10.0,West,5.8,-,N/A,,Clear,260,2013-03-22 01:44:00
9:04 PM,17.6,6.8,63,30.04,10.0,WSW,3.5,-,N/A,,Clear,250,2013-03-22 02:04:00
9:24 PM,15.8,6.8,68,30.05,10.0,Calm,Calm,-,N/A,,Clear,0,2013-03-22 02:24:00
9:44 PM,15.8,6.8,68,30.05,10.0,West,5.8,-,N/A,,Clear,280,2013-03-22 02:44:00
10:05 PM,14.0,6.8,73,30.06,10.0,West,4.6,-,N/A,,Clear,270,2013-03-22 03:05:00
10:24 PM,8.6,3.2,79,30.07,10.0,West,3.5,-,N/A,,Clear,280,2013-03-22 03:24:00
10:44 PM,10.4,6.8,85,30.07,10.0,Calm,Calm,-,N/A,,Clear,0,2013-03-22 03:44:00
11:05 PM,10.4,5.0,79,30.07,10.0,Calm,Calm,-,N/A,,Clear,0,2013-03-22 04:05:00
11:24 PM,6.8,1.4,79,30.07,10.0,Calm,Calm,-,N/A,,Clear,0,2013-03-22 04:24:00
11:44 PM,8.6,3.2,79,30.07,10.0,Calm,Calm,-,N/A,,Clear,0,2013-03-22 04:44:00